Home   Weather   Caracas   Past weeks

Flag for Venezuela Past Weather in Caracas, Venezuela — Yesterday and Last 2 Weeks

Now
88 °F

Scattered clouds.


Feels Like: 91 °F
Forecast: 71 / 79 °F
Wind: 3 mph from Northeast

Location: Caracas / Maiquetia Aerop. Intl. Simon Bolivar

Current Time: Feb 27, 2017 at 2:48:44 pm

Latest Report: Feb 27, 2017 at 2:00 pm


Visibility: N/A

Pressure: 29.98 "Hg (27.17 "Hg at 875m altitude)

Humidity: 52%

Dew Point: 68 °F

Location of CaracasLocation

Past Weather in Caracas — Graph

°F

Caracas Temperature Yesterday

Maximum temperature yesterday: 90 °F (at 1:00 pm)
Minimum temperature yesterday: 79 °F (at 8:00 pm)
Average temperature yesterday: 84 °F

High & Low Weather Summary for the Past Weeks

 TemperatureHumidityPressure
High90 °F (Feb 13, 5:00 pm)89% (Feb 21, 7:00 am)30.04 "Hg (Feb 21, 7:00 am)
Low68 °F (Feb 25, 8:00 am)31% (Feb 19, 11:00 am)29.83 "Hg (Feb 20, 10:00 pm)
Average81 °F51%29.93 "Hg
* Reported Feb 12 2:00 pm — Feb 27 2:00 pm, Caracas, Weather by CustomWeather, © 2017

Note: Actual official high and low records may vary slightly from our data, if they occured in-between our weather recording intervals... More about our weather records

Advertising

Caracas Weather History for the Previous 24 Hours

Scroll right to see more
 ConditionsComfort  
Time TempWeatherWind HumidityBarometerVisibility
2:00 pm
Mon, Feb 27
88 °FScattered clouds.3 mph52%29.98 "HgN/A
1:00 pm90 °FScattered clouds.5 mph46%30.01 "HgN/A
12:00 pm90 °FScattered clouds.8 mph46%30.01 "HgN/A
11:00 am88 °FScattered clouds.5 mph52%30.01 "HgN/A
10:00 am84 °FPassing clouds.No wind51%30.01 "HgN/A
9:00 am82 °FPassing clouds.3 mph51%29.98 "HgN/A
8:00 am79 °FPassing clouds.No wind54%29.98 "HgN/A
7:00 am79 °FScattered clouds.No wind51%29.89 "HgN/A
6:00 am79 °FPassing clouds.No wind51%29.89 "HgN/A
5:00 am79 °FPassing clouds.No wind51%29.92 "HgN/A
4:00 am79 °FPassing clouds.No wind51%29.95 "HgN/A
3:00 am79 °FPassing clouds.No wind51%29.95 "HgN/A
2:00 am79 °FPassing clouds.No wind51%29.92 "HgN/A
1:00 am79 °FPassing clouds.No wind51%29.92 "HgN/A
12:00 am79 °FPassing clouds.No wind51%29.92 "HgN/A
11:00 pm
Sun, Feb 26
79 °FPassing clouds.No wind51%29.92 "HgN/A
10:00 pm79 °FPassing clouds.3 mph51%29.95 "HgN/A
9:00 pm79 °FPassing clouds.3 mph58%29.95 "HgN/A
8:00 pm79 °FPassing clouds.3 mph58%29.95 "HgN/A
7:00 pm82 °FPassing clouds.3 mph55%29.95 "HgN/A
6:00 pm84 °FScattered clouds.5 mph51%29.92 "HgN/A
5:00 pm84 °FScattered clouds.3 mph55%29.95 "HgN/A
4:00 pm86 °FScattered clouds.5 mph55%29.95 "HgN/A
3:00 pm90 °FPassing clouds.3 mph43%29.95 "HgN/A
2:00 pm90 °FPassing clouds.5 mph41%29.95 "HgN/A
Weather by CustomWeather, © 2017

See weather overviewHow to use our weather pages